Regional Weather Roundup
Issued by NWS State College, PA

Home | Current Version | Previous Version | Graphics & Text | Print | Product List | Glossary Off
Versions: 1 2 3 4 5 6 7 8 9 10 11 12 13 14 15 16 17 18 19 20 21 22 23 24 25 26 27 28 29 30 31 32 33 34 35 36 37 38 39 40 41 42 43 44 45 46 47 48 49 50

000
ASUS41 KCTP 262103
RWRCTP

REGIONAL WEATHER ROUNDUP
NATIONAL WEATHER SERVICE STATE COLLEGE PA
500 PM EDT WED JUL 26 2017

Note: "fair" indicates few or no clouds below 12,000 feet with no
significant weather and/or obstructions to visibility.

* = STATION THAT DOES NOT REPORT PRECIPITATION /E.G. RAIN...SNOW...ETC/
    THUNDER OR FOG.

PAZ002>004-007>009-013>016-020>023-029>032-262200-
WESTERN PENNSYLVANIA

CITY           SKY/WX    TMP DP  RH WIND       PRES   REMARKS
ERIE           FAIR      74  62  66 NW8       30.08S
MEADVILLE      FAIR      76  62  62 SW6       30.10F
FRANKLIN*      FAIR      75  59  57 SE7       30.12F
NEW CASTLE     FAIR      80  64  58 CALM      30.10F
BEAVER COUNTY  NOT AVBL
BUTLER*        FAIR      79  63  57 CALM      30.10F
PITTSBURGH INT PTSUNNY   79  61  53 SW6       30.10S
PITTSBURGH     FAIR      79  58  48 S8        30.09F
INDIANA*       SUNNY     81  64  57 S5        30.13F
LATROBE        MOSUNNY   81  63  54 W5        30.10F
WASHINGTON CO* FAIR      81  59  47 SW6       30.10F
$$

PAZ004>006-010>012-017>019-024>028-033>037-041-042-045-046-049>053-262200-
CENTRAL PENNSYLVANIA

CITY           SKY/WX    TMP DP  RH WIND       PRES   REMARKS
BRADFORD       FAIR      74  59  59 S7        30.13F
DUBOIS         FAIR      76  59  55 VRB5      30.13F
CLEARFIELD     FAIR      77  59  53 VRB6      30.14F
JOHNSTOWN      FAIR      75  61  61 S8        30.15F
ALTOONA        FAIR      76  63  64 S6        30.15F
STATE COLLEGE  MOSUNNY   75  59  57 S7        30.14F
WILLIAMSPORT   FAIR      78  59  51 S8        30.11F
SELINSGROVE    FAIR      79  64  60 S7        30.13F
FT INDIANTOWN  NOT AVBL
CAPITAL CITY   FAIR      82  59  45 S6        30.12F
HARRISBURG     FAIR      81  63  54 SE5       30.11F
YORK           FAIR      80  64  58 SW5       30.13F
$$

PAZ038>040-043-044-047-048-054-055-060>062-067>071-262200-
EASTERN PENNSYLVANIA

CITY           SKY/WX    TMP DP  RH WIND       PRES   REMARKS
SCRANTON       FAIR      75  60  59 VRB5      30.14F
MOUNT POCONO   CLOUDY    68  62  81 SE9       30.20F
ALLENTOWN      CLOUDY    78  60  53 CALM      30.15F
QUAKERTOWN*    CLOUDY    77  63  61 SE3       30.17S
READING        FAIR      79  65  62 VRB3      30.13F
LANCASTER      PTSUNNY   78  66  66 E7        30.13F
COATESVILLE    MOCLDY    75  63  64 VRB3      30.17F
POTTSTOWN      CLOUDY    75  62  64 E5        30.16F
BLUE BELL      PTSUNNY   77  63  61 E7        30.17S
DOYLESTOWN     FAIR      73  62  68 CALM      30.16S
WILLOW GROVE   NOT AVBL
NORTH PHILA    FAIR      78  62  57 S6        30.17F
PHILADELPHIA   PTSUNNY   81  62  52 E8        30.15S
$$




USA.gov is the U.S. government's official web portal to all federal, state and local government web resources and services.